Regional Weather Roundup
Issued by NWS

Home | Current Version | Previous Version | Graphics & Text | Print | Product List | Glossary Off
Versions: 1 2 3 4 5 6 7 8 9 10 11 12 13 14 15 16 17 18 19 20 21 22 23 24 25 26 27 28 29 30 31 32 33 34 35 36 37 38 39 40 41 42 43 44 45 46 47 48

000
ASUS43 KDMX 201807
RWRIA

WEATHER ROUNDUP FOR IOWA
NATIONAL WEATHER SERVICE DES MOINES IA
100 PM CDT WED AUG 20 2014

NOTE: "FAIR" INDICATES FEW OR NO CLOUDS BELOW 12,000 FEET WITH NO
SIGNIFICANT WEATHER AND/OR OBSTRUCTIONS TO VISIBILITY.

* - THESE STATIONS ARE NOT NWS STATIONS...THUS NOT UNDER NWS
QUALITY CONTROL.  THEY ALSO DO NOT REPORT WEATHER SUCH
AS PRECIPITATION OR FOG.

IAZ001>003-012>014-020>022-031>034-043>046-201900-
   NORTHWEST IOWA

CITY           SKY/WX    TMP DP  RH WIND       PRES   REMARKS
CARROLL *      MOSUNNY   72  68  88 MISG      29.86R
CHEROKEE *     LGT RAIN  70  70  99 SE13      29.82F
DENISON *      MOSUNNY   72  68  88 S7G14     29.85R
LE MARS *      SUNNY     72  68  88 S15G22    29.80S
ORANGE CITY *  SUNNY     75  66  73 S10       29.81F
SHELDON *      MOSUNNY   73  70  88 S13       29.81F
SIOUX CITY     CLOUDY    72  69  90 SE9G17    29.81F
6HR MIN TEMP:  68; 6HR MAX TEMP:  74; 6HR PCP:  0.08;

SPENCER        LGT RAIN  73  67  81 SE9       29.85R
6HR MIN TEMP:  65; 6HR MAX TEMP:  73; 6HR PCP:  0.05;

STORM LAKE *   SUNNY     70  70 100 S10       29.89S
$$

IAZ055>058-069>071-079>083-090>094-201900-
   SOUTHWEST IOWA

CITY           SKY/WX    TMP DP  RH WIND       PRES   REMARKS
ATLANTIC *     SUNNY     77  66  69 S5G12     29.86S
AUDUBON *      SUNNY     73  70  88 S7        29.89R
CLARINDA *     SUNNY     84  73  70 SE13G18   29.89S HX  91
COUNCIL BLFS * SUNNY     81  73  78 SE16      29.84F HX  85
CRESTON *      SUNNY     79  70  73 SE12G18   29.90S HX  81
HARLAN  *      SUNNY     73  66  78 MISG      29.90R
LAMONI         PTSUNNY   81  68  64 SE9       29.91S HX  84
6HR MIN TEMP:  69; 6HR MAX TEMP:  81;

RED OAK *      SUNNY     82  72  69 SE14G22   29.86F HX  87
SHENANDOAH *   SUNNY     82  73  74 SE14      29.86F HX  88
$$

IAZ047>049-059>061-072>074-084-201900-
   CENTRAL IOWA

CITY           SKY/WX    TMP DP  RH WIND       PRES   REMARKS
AMES           CLOUDY    70  67  90 W6        29.86F
6HR MIN TEMP:  67; 6HR MAX TEMP:  72; 6HR PCP:  0.32;

ANKENY *       LGT RAIN  70  66  88 VRB3G14   29.88R
CHARITON *     SUNNY     79  70  73 SE10      29.90F HX  81
DES MOINES     LGT RAIN  74  68  81 S8        29.86R
6HR MIN TEMP:  68; 6HR MAX TEMP:  74; 6HR PCP:  1.47;

GRINNELL*      CLOUDY    72  66  83 S10       29.86R
KNOXVILLE *    SUNNY     75  68  78 S12       29.88R
MARSHALLTOWN   CLOUDY    70  68  93 W9        29.88R
6HR MIN TEMP:  63; 6HR MAX TEMP:  71; 6HR PCP:  0.15;

PELLA *        CLOUDY    72  69  89 S7        29.89S
PERRY *          N/A     72  70  94 S13       29.86F
$$

IAZ004>006-015-016-023>025-035-036-201900-
   NORTH CENTRAL IOWA

CITY           SKY/WX    TMP DP  RH WIND       PRES   REMARKS
ALGONA *       PTSUNNY   72  68  88 VRB6      29.88R
CLARION *      SUNNY     70  68  94 VRB6      29.86F
ESTHERVILLE    CLOUDY    72  67  84 S7        29.87R
6HR MIN TEMP:  62; 6HR MAX TEMP:  74;

FORT DODGE *   CLOUDY    70  68  94 SE8       29.86S
MASON CITY     CLOUDY    77  67  71 SE7       29.87F
6HR MIN TEMP:  61; 6HR MAX TEMP:  78; 6HR PCP: TRACE;

FOREST CITY *  SUNNY     77  68  73 S10       29.87R
IOWA FALLS *     N/A     70  67  89 SW6       29.88R
$$

IAZ007>011-017>019-026>030-037>042-050>054-066-201900-
   NORTHEAST IOWA

CITY           SKY/WX    TMP DP  RH WIND       PRES   REMARKS
CEDAR RAPIDS   CLOUDY    74  68  81 E7        29.85F
6HR MIN TEMP:  62; 6HR MAX TEMP:  74; 6HR PCP:  0.02;

CHARLES CITY * SUNNY     79  68  69 S6G12     29.87F HX  81
CLINTON *      CLOUDY    81  70  69 W5        29.94F HX  84
DECORAH *      SUNNY     79  68  69 VRB6      29.87F HX  81
DUBUQUE        PTSUNNY   79  66  64 SW13      29.90F HX  81
6HR MIN TEMP:  60; 6HR MAX TEMP:  79;

MONTICELLO *   SUNNY     77  68  73 S3        29.88F
OELWEIN *      SUNNY     77  70  78 S7        29.87F
WATERLOO       CLOUDY    75  65  70 SE7       29.83F
6HR MIN TEMP:  64; 6HR MAX TEMP:  76;

$$

IAZ064-065-067-068-078-201900-
   EAST CENTRAL IOWA

CITY           SKY/WX    TMP DP  RH WIND       PRES   REMARKS
DAVENPORT      CLOUDY    78  68  71 CALM      29.91F HX  80
6HR MIN TEMP:  60; 6HR MAX TEMP:  78; 6HR PCP: TRACE;

IOWA CITY      LGT RAIN  74  68  81 NE6       29.87F
6HR MIN TEMP:  63; 6HR MAX TEMP:  75; 6HR PCP: TRACE;

MT. PLEASANT * CLOUDY    72  70  94 S9        29.90S
MUSCATINE *    SUNNY     75  66  73 NE9       29.87F
QUAD CITIES    CLOUDY    79  68  69 SE3       29.90F HX  81
6HR MIN TEMP:  63; 6HR MAX TEMP:  79;

$$

IAZ062-063-075>077-085>089-095>099-201900-
   SOUTHEAST IOWA

CITY           SKY/WX    TMP DP  RH WIND       PRES   REMARKS
BURLINGTON     CLOUDY    70  69  97 S8        29.92F
6HR MIN TEMP:  68; 6HR MAX TEMP:  71; 6HR PCP:  0.73;

FAIRFIELD *    SUNNY     72  68  88 S7G13     29.90F
FORT MADISON * CLOUDY    72  72 100 S7        29.94S
KEOKUK *       SUNNY     73  70  88 S6        29.93F
OSKALOOSA *      N/A     72  68  88 S13       29.88F
CENTERVILLE *  SUNNY     75  72  88 SE9       29.93F
OTTUMWA        CLOUDY    74  69  85 S12       29.88F
6HR MIN TEMP:  68; 6HR MAX TEMP:  74;

WASHINGTON *   SUNNY     70  70 100 S7        29.87F
$$

ABBREVIATIONS USED IN REMARKS
   TC - TEMPERATURES IN CELSIUS
  WCI - WIND CHILL INDEX
   HX - HEAT INDEX
  VSB - VISIBILITY
$$



USA.gov is the U.S. government's official web portal to all federal, state and local government web resources and services.